Regional Weather Roundup
Issued by NWS Little Rock, AR

Home | Current Version | Previous Version | Text Only | Print | Product List | Glossary On
Versions: 1 2 3 4 5 6 7 8 9 10 11 12 13 14 15 16 17 18 19 20 21 22 23 24 25 26 27 28 29 30 31 32 33 34 35 36 37 38 39 40 41 42 43 44 45 46 47 48 49 50
000
ASUS44 KLZK 270305
RWRLZK

WEATHER ROUNDUP FOR ARKANSAS
NATIONAL WEATHER SERVICE LITTLE ROCK AR
900 PM CST MON JAN 26 2015

NOTE: "FAIR" INDICATES FEW OR NO CLOUDS BELOW 12,000 FEET WITH NO
SIGNIFICANT WEATHER AND/OR OBSTRUCTIONS TO VISIBILITY.

ARZ001-003-010-029-270400-
NORTHWEST ARKANSAS

CITY           SKY/WX    TMP DP  RH WIND       PRES   REMARKS
FAYETTEVILLE   CLEAR     41  33  73 S5        30.03R
FORT SMITH     CLEAR     45  35  68 CALM      30.02R
HARRISON       CLEAR     50  34  54 NW7       29.99R
BENTONVILLE    CLEAR     45  32  61 CALM      30.02S
ROGERS         CLEAR     48  34  58 W7        30.02S
SILOAM SPGS    CLEAR     46  30  53 SW3       30.03S
HIGHFILL       CLEAR     46  33  60 SW3       30.01S
SPRINGDALE     CLEAR     45  34  65 CALM      30.03R
$$

ARZ004-005-016-270400-
NORTH CENTRAL ARKANSAS

CITY           SKY/WX    TMP DP  RH WIND       PRES   REMARKS
BATESVILLE     CLEAR     46  30  53 W5        29.96S
FLIPPIN        CLEAR     48  30  49 CALM      29.97S
MTN HOME       CLEAR     50  35  56 W3        29.97S
$$

ARZ040-041-270400-
WEST CENTRAL ARKANSAS

CITY           SKY/WX    TMP DP  RH WIND       PRES   REMARKS
MENA           CLEAR     50  37  62 W5        30.03S
MOUNT IDA      CLEAR     49  35  58 NW5       29.99S
$$

ARZ009-017-025-026-028-270400-
NORTHEAST ARKANSAS

CITY           SKY/WX    TMP DP  RH WIND       PRES   REMARKS
CORNING        FAIR      37  34  87 W7        29.94S
JONESBORO      CLEAR     43  35  73 W6        29.94S
NEWPORT        CLEAR     47  34  60 W7        29.96S
WALNUT RIDGE   CLEAR     43  32  65 SW7       29.93S
BLYTHEVILLE    CLEAR     37  32  82 SE3       29.94F
$$

ARZ022-023-033-042-044-270400-
CENTRAL ARKANSAS

CITY           SKY/WX    TMP DP  RH WIND       PRES   REMARKS
LITTLE ROCK    CLEAR     49  33  54 W6        30.00S
N LITTLE ROCK  CLEAR     53  38  56 W3        30.00S
JACKSONVILLE   CLEAR     45  33  62 W5        29.99R
SEARCY         CLEAR     48  34  58 VRB3      29.99F
HOT SPRINGS    CLEAR     51  35  54 NW3       30.01F
RUSSELLVILLE   CLEAR     39  33  79 NE5       30.00R
CLINTON        FAIR      37  32  81 CALM      30.01S
$$

ARZ036-270400-
EAST ARKANSAS

CITY           SKY/WX    TMP DP  RH WIND       PRES   REMARKS
WEST MEMPHIS   CLEAR     41  34  76 S6        29.95F
$$

ARZ050-053-066-070-073-270400-
SOUTHWEST ARKANSAS

CITY           SKY/WX    TMP DP  RH WIND       PRES   REMARKS
ARKADELPHIA    FAIR      43  41  93 CALM      30.03S
CAMDEN         CLEAR     45  34  65 CALM      30.04R
TEXARKANA      CLEAR     50  36  58 SW7       30.04S
EL DORADO      CLEAR     47  35  63 SW6       30.04S
DE QUEEN       CLEAR     40  36  86 CALM      30.03S
$$

ARZ056-057-069-270400-
SOUTHEAST ARKANSAS

CITY           SKY/WX    TMP DP  RH WIND       PRES   REMARKS
PINE BLUFF     CLEAR     48  34  58 SW5       30.00F
STUTTGART      CLEAR     45  36  70 W9        30.00R
MONTICELLO     CLEAR     50  34  54 W8        30.01F

$$




USA.gov is the U.S. government's official web portal to all federal, state and local government web resources and services.